Overview Statistics Trail Chart Weather Telemetry Raw packets
 

This is the latest recevied weather packets stored in our database for station/object KC5DAQ-26. If no packets are shown the sender has not sent any weather packets the latest 10 day(s).

<< 543 544 545 546 547 548 549 >>
Time Temp. Humidity Pressure Rain* Wind** Luminosity Snow
1787772593 36.11° C 56% 1017.9 hPa 0 mm - 891 W/m² -
1787772531 36.11° C 56% 1018 hPa 0 mm - 891 W/m² -
1787772473 36.11° C 56% 1018 hPa 0 mm - 893 W/m² -
1787772412 36.11° C 57% 1018 hPa 0 mm - 899 W/m² -
1787772352 36.11° C 56% 1018 hPa 0 mm - 900 W/m² -
1787772291 36.11° C 55% 1018.1 hPa 0 mm - 904 W/m² -
1787772232 36.11° C 55% 1018.1 hPa 0 mm - 904 W/m² -
1787772173 36.11° C 55% 1018.1 hPa 0 mm - 906 W/m² -
1787772112 36.67° C 56% 1018.1 hPa 0 mm - 907 W/m² -
1787772052 36.11° C 57% 1018.1 hPa 0 mm - 906 W/m² -
1787771991 36.11° C 57% 1018.2 hPa 0 mm - 906 W/m² -
1787771932 36.11° C 58% 1018.1 hPa 0 mm - 906 W/m² -
1787771872 36.11° C 60% 1018.1 hPa 0 mm - 906 W/m² -
1787771812 35.56° C 58% 1018.2 hPa 0 mm - 907 W/m² -
1787771751 35.56° C 58% 1018.1 hPa 0 mm - 907 W/m² -
1787771691 35.56° C 58% 1018.2 hPa 0 mm - 907 W/m² -
1787771633 35.56° C 58% 1018.2 hPa 0 mm - 907 W/m² -
1787771572 35.56° C 61% 1018.2 hPa 0 mm - 909 W/m² -
1787771511 35.56° C 60% 1018.2 hPa 0 mm - 909 W/m² -
1787771452 35.56° C 59% 1018.2 hPa 0 mm - 909 W/m² -
1787771393 35.56° C 58% 1018.2 hPa 0 mm - 911 W/m² -
1787771333 35.56° C 58% 1018.3 hPa 0 mm - 914 W/m² -
1787771272 35.56° C 59% 1018.2 hPa 0 mm - 916 W/m² -
1787771213 35.56° C 59% 1018.2 hPa 0 mm - 914 W/m² -
1787771153 35.56° C 59% 1018.3 hPa 0 mm - 918 W/m² -

* Rain latest hour (hover to see other rain measurements)
** Current wind speed in m/s (hover to see current wind gust speed)